Stündliche Wetter Czysta

Heute, 28 Oktober, Mittwoch

Zeit Temperatur Niederschläge Wind Luftdruck Luftfeuchtigkeit
00:00 +12°C° 0 mm 1 m/S 739 mmHg 89%
01:00 +12°C° 0 mm 1 m/S 739 mmHg 89%
02:00 +11°C° 0 mm 1 m/S 739 mmHg 90%
03:00 +10°C° 0 mm 0 m/S 739 mmHg 92%
04:00 +9°C° 0 mm 0 m/S 739 mmHg 93%
05:00 +9°C° 0 mm 0 m/S 739 mmHg 93%
06:00 +10°C° 0 mm 1 m/S 739 mmHg 93%
07:00 +10°C° 0 mm 1 m/S 739 mmHg 93%
08:00 +10°C° 0 mm 2 m/S 739 mmHg 90%
09:00 +13°C° 0 mm 2 m/S 739 mmHg 86%
10:00 +14°C° 0 mm 2 m/S 739 mmHg 82%
11:00 +14°C° 0 mm 2 m/S 739 mmHg 81%
12:00 +14°C° 0 mm 2 m/S 739 mmHg 79%
13:00 +14°C° 0 mm 3 m/S 739 mmHg 77%
14:00 +15°C° 0 mm 2 m/S 739 mmHg 78%
15:00 +14°C° 0 mm 2 m/S 739 mmHg 78%
16:00 +14°C° 0 mm 2 m/S 739 mmHg 79%
17:00 +13°C° 0 mm 2 m/S 739 mmHg 80%
18:00 +12°C° 0 mm 2 m/S 739 mmHg 81%
19:00 +10°C° 0 mm 3 m/S 739 mmHg 82%
20:00 +10°C° 0 mm 3 m/S 740 mmHg 81%
21:00 +10°C° 0 mm 3 m/S 740 mmHg 80%
22:00 +10°C° 0 mm 3 m/S 740 mmHg 78%
23:00 +9°C° 0 mm 3 m/S 740 mmHg 79%

Morgen, 29 Oktober, Donnerstag

Zeit Temperatur Niederschläge Wind Luftdruck Luftfeuchtigkeit
00:00 +9°C° 0 mm 3 m/S 740 mmHg 80%
01:00 +9°C° 0 mm 3 m/S 740 mmHg 81%
02:00 +9°C° 0 mm 3 m/S 740 mmHg 82%
03:00 +8°C° 0 mm 3 m/S 740 mmHg 84%
04:00 +8°C° 0 mm 3 m/S 740 mmHg 85%
05:00 +8°C° 0 mm 3 m/S 740 mmHg 86%
06:00 +8°C° 0 mm 3 m/S 740 mmHg 86%
07:00 +8°C° 0 mm 3 m/S 740 mmHg 87%
08:00 +9°C° 0 mm 3 m/S 740 mmHg 79%
09:00 +11°C° 0 mm 4 m/S 740 mmHg 71%
10:00 +12°C° 0 mm 4 m/S 740 mmHg 64%
11:00 +12°C° 0 mm 5 m/S 740 mmHg 66%
12:00 +12°C° 0 mm 5 m/S 740 mmHg 67%
13:00 +12°C° 0 mm 5 m/S 739 mmHg 69%
14:00 +10°C° 0.1 mm 5 m/S 739 mmHg 72%
15:00 +11°C° 0.1 mm 4 m/S 739 mmHg 75%
16:00 +10°C° 0.1 mm 4 m/S 739 mmHg 77%
17:00 +9°C° 0.3 mm 5 m/S 739 mmHg 79%
18:00 +9°C° 0.3 mm 5 m/S 739 mmHg 80%
19:00 +9°C° 0.3 mm 6 m/S 739 mmHg 82%
20:00 +8°C° 0 mm 5 m/S 740 mmHg 83%
21:00 +7°C° 0 mm 5 m/S 740 mmHg 84%
22:00 +6°C° 0 mm 5 m/S 741 mmHg 85%
23:00 +6°C° 0 mm 5 m/S 741 mmHg 86%

übermorgen, 30 Oktober, Freitag

Zeit Temperatur Niederschläge Wind Luftdruck Luftfeuchtigkeit
00:00 +5°C° 0 mm 4 m/S 741 mmHg 86%
01:00 +5°C° 0 mm 4 m/S 742 mmHg 87%
02:00 +5°C° 0 mm 4 m/S 742 mmHg 88%
03:00 +4°C° 0 mm 4 m/S 742 mmHg 90%
04:00 +4°C° 0 mm 4 m/S 743 mmHg 91%
05:00 +4°C° 0 mm 4 m/S 743 mmHg 91%
06:00 +4°C° 0 mm 4 m/S 743 mmHg 92%
07:00 +4°C° 0 mm 4 m/S 743 mmHg 92%
08:00 +5°C° 0 mm 4 m/S 743 mmHg 86%
09:00 +6°C° 0 mm 4 m/S 743 mmHg 80%
10:00 +7°C° 0 mm 4 m/S 743 mmHg 74%
11:00 +7°C° 0 mm 4 m/S 743 mmHg 69%
12:00 +8°C° 0 mm 4 m/S 742 mmHg 64%
13:00 +10°C° 0 mm 3 m/S 742 mmHg 60%
14:00 +9°C° 0.3 mm 3 m/S 741 mmHg 67%
15:00 +8°C° 0.3 mm 2 m/S 741 mmHg 75%
16:00 +7°C° 0.3 mm 2 m/S 740 mmHg 83%
17:00 +7°C° 1.6 mm 2 m/S 740 mmHg 86%
18:00 +7°C° 1.6 mm 3 m/S 740 mmHg 89%
19:00 +7°C° 1.6 mm 3 m/S 740 mmHg 93%
20:00 +7°C° 1.3 mm 3 m/S 740 mmHg 93%
21:00 +7°C° 1.3 mm 3 m/S 740 mmHg 93%
22:00 +7°C° 1.3 mm 3 m/S 740 mmHg 93%
23:00 +5°C° 0.1 mm 3 m/S 740 mmHg 93%

31 Oktober, Samstag

Zeit Temperatur Niederschläge Wind Luftdruck Luftfeuchtigkeit
00:00 +5°C° 0.1 mm 3 m/S 741 mmHg 93%
01:00 +6°C° 0.1 mm 2 m/S 741 mmHg 92%
02:00 +6°C° 0 mm 2 m/S 742 mmHg 92%
03:00 +5°C° 0 mm 2 m/S 742 mmHg 91%
04:00 +5°C° 0 mm 2 m/S 743 mmHg 91%
05:00 +5°C° 0 mm 2 m/S 744 mmHg 91%
06:00 +5°C° 0 mm 1 m/S 744 mmHg 92%
07:00 +5°C° 0 mm 1 m/S 745 mmHg 93%
08:00 +6°C° 0 mm 1 m/S 745 mmHg 88%
09:00 +7°C° 0 mm 1 m/S 746 mmHg 83%
10:00 +8°C° 0 mm 2 m/S 747 mmHg 77%
11:00 +8°C° 0 mm 2 m/S 747 mmHg 74%
12:00 +9°C° 0 mm 2 m/S 747 mmHg 70%
13:00 +10°C° 0 mm 2 m/S 747 mmHg 67%
14:00 +10°C° 0 mm 1 m/S 747 mmHg 70%
15:00 +9°C° 0 mm 1 m/S 747 mmHg 74%
16:00 +9°C° 0 mm 1 m/S 747 mmHg 78%
17:00 +8°C° 0 mm 1 m/S 748 mmHg 81%
18:00 +7°C° 0 mm 1 m/S 748 mmHg 84%
19:00 +7°C° 0 mm 1 m/S 748 mmHg 86%
20:00 +7°C° 0 mm 1 m/S 748 mmHg 88%
21:00 +6°C° 0 mm 1 m/S 748 mmHg 89%
22:00 +6°C° 0 mm 1 m/S 748 mmHg 91%
23:00 +6°C° 0 mm 1 m/S 748 mmHg 91%

1 November, Sonntag

Zeit Temperatur Niederschläge Wind Luftdruck Luftfeuchtigkeit
00:00 +6°C° 0 mm 1 m/S 748 mmHg 92%
01:00 +6°C° 0 mm 1 m/S 748 mmHg 93%
02:00 +4°C° 0 mm 2 m/S 748 mmHg 93%
03:00 +4°C° 0 mm 2 m/S 748 mmHg 93%
04:00 +4°C° 0 mm 2 m/S 748 mmHg 93%
05:00 +4°C° 0 mm 2 m/S 748 mmHg 93%
06:00 +4°C° 0 mm 2 m/S 748 mmHg 93%
07:00 +4°C° 0 mm 2 m/S 748 mmHg 92%
08:00 +5°C° 0 mm 3 m/S 748 mmHg 87%
09:00 +7°C° 0 mm 3 m/S 748 mmHg 81%
10:00 +8°C° 0 mm 4 m/S 747 mmHg 75%
11:00 +10°C° 0 mm 4 m/S 747 mmHg 73%
12:00 +10°C° 0 mm 4 m/S 747 mmHg 70%
13:00 +11°C° 0 mm 4 m/S 747 mmHg 67%
14:00 +11°C° 0 mm 4 m/S 746 mmHg 71%
15:00 +10°C° 0 mm 3 m/S 746 mmHg 75%
16:00 +9°C° 0 mm 3 m/S 746 mmHg 79%
17:00 +8°C° 0 mm 3 m/S 746 mmHg 81%
18:00 +8°C° 0 mm 3 m/S 746 mmHg 84%
19:00 +7°C° 0 mm 3 m/S 746 mmHg 86%
20:00 +7°C° 0 mm 3 m/S 746 mmHg 86%
21:00 +7°C° 0 mm 3 m/S 746 mmHg 87%
22:00 +7°C° 0 mm 3 m/S 746 mmHg 88%
23:00 +5°C° 0 mm 3 m/S 746 mmHg 86%

2 November, Montag

Zeit Temperatur Niederschläge Wind Luftdruck Luftfeuchtigkeit
00:00 +5°C° 0 mm 3 m/S 746 mmHg 85%
01:00 +5°C° 0 mm 3 m/S 746 mmHg 84%
02:00 +5°C° 0 mm 3 m/S 746 mmHg 82%
03:00 +5°C° 0 mm 3 m/S 745 mmHg 81%
04:00 +5°C° 0 mm 3 m/S 745 mmHg 79%
05:00 +5°C° 0 mm 3 m/S 745 mmHg 77%
06:00 +5°C° 0 mm 3 m/S 746 mmHg 76%
07:00 +5°C° 0 mm 3 m/S 746 mmHg 74%
08:00 +8°C° 0 mm 3 m/S 746 mmHg 70%
09:00 +9°C° 0 mm 3 m/S 746 mmHg 65%
10:00 +10°C° 0 mm 4 m/S 746 mmHg 61%
11:00 +11°C° 0 mm 4 m/S 746 mmHg 59%
12:00 +12°C° 0 mm 4 m/S 746 mmHg 57%
13:00 +13°C° 0 mm 4 m/S 746 mmHg 56%
14:00 +12°C° 0 mm 3 m/S 745 mmHg 59%
15:00 +11°C° 0 mm 3 m/S 745 mmHg 63%
16:00 +10°C° 0 mm 3 m/S 745 mmHg 67%
17:00 +10°C° 0 mm 3 m/S 745 mmHg 67%
18:00 +9°C° 0 mm 3 m/S 745 mmHg 68%
19:00 +9°C° 0 mm 3 m/S 745 mmHg 69%
20:00 +9°C° 0 mm 3 m/S 745 mmHg 69%
21:00 +9°C° 0 mm 2 m/S 746 mmHg 69%
22:00 +9°C° 0 mm 2 m/S 746 mmHg 69%
23:00 +8°C° 0 mm 2 m/S 746 mmHg 70%
Mehr zeigen

Wir brauchen deine Erlaubnis

Meteoprog und unser Service Anbieter werden persönliche Daten aufbewahren, so wie Cookies, Geräte Bezeichnung oder ähnliche Technologien von deinem Gerät und Prozess, so wie Persönliche Daten Inhalte und Werbungen, genauso wie social Media und den Verkehr zu analysieren.

  • Aufbewahrung und/oder Zugang zu deiner Geräte Informationen.

    Cookies, Geräte Bezeichnung oder andere Informationen, können aufbewahrt oder Zugang zu deinem Gerät erhalten, für den Grund, der oben angegeben wird.

  • Personalisierte Werbung und Inhalte, Messungen, Einblick in das Publikum und Produkt Entwicklung.

    Werbungen und Inhalte können personalisiert werden, basierend auf ein Profil. Mehr Daten können besser personalisierte Werbungen und Inhalte hinzufügen. Werbung und Inhalte können gezeigt und gemessen werden. Einblicke über das Publikum, welche die Werbung gesehen haben und den Inhalt, können abgeleitet werden. So wie Daten können genutzt werden, um es zu verbessern oder die Benutzer Erfahrung zu verbessern das System und die Software.

Wenn du “Ich stimme zu” klickst, erlaubst du uns, die Cookies zu benutzen die Geräte Bezeichnung, den Web oder ähnliche Technologien zu benutzen. Deine Settings, können in deinem Gerät bei deinem Browser geändert werden.

Für den bestimmten Zweck, berechtigten Interessen beruhen darauf, mehr als auf den Inhalt. Du kannst mehr darüber in unseren Privaten und Cookie Politik lesen.